Repton, AL

3:33 AM CST on January 22, 2017 (GMT -0600)
Middleton

Weather History for KGZH - July, 2013

Change the Weather History Date:

Saturday, July 27, 2013

  Actual Average (KPRN) Record (KPRN)
Temperature  
Mean Temperature 79 °F -  
Max Temperature 88 °F 92 °F 99 °F (1981)
Min Temperature 72 °F 70 °F 67 °F (1988)
Cooling Degree Days 14    
Growing Degree Days 29 (Base 50)    
Moisture  
Dew Point 72 °F    
Average Humidity 82    
Maximum Humidity 94    
Minimum Humidity 65    
Precipitation  
Precipitation 0.00 in - - ()
Sea Level Pressure  
Sea Level Pressure 29.96 in    
Wind  
Wind Speed 2 mph (South)    
Max Wind Speed 10 mph    
Max Gust Speed -    
Visibility 8 miles    
Events Thunderstorm    
Averages and records for this station are not official NWS values.
T = Trace of Precipitation, MM = Missing Value Source: NWS Daily Summary

Daily Weather History Graph

Daily Weather History Graph

Search for Another Location

Airport or City:

Trip Planner

Search our weather history database for the weather conditions in past years. The results will help you decide how hot, cold, wet, or windy it might be!

Date:

Astronomy

Jul. 27, 2013 Rise Set
Actual Time 6:01 AM CDT 7:47 PM CDT
Civil Twilight 5:34 AM CDT 8:14 PM CDT
Nautical Twilight 5:02 AM CDT 8:46 PM CDT
Astronomical Twilight 4:28 AM CDT 9:20 PM CDT
Moon 11:01 PM CDT (7/27) 11:15 AM CDT (7/27)
Length of Visible Light 14h 39m
Length of Day
13h 45m
Waning Gibbous, 70% of the Moon is Illuminated
Jul 27
Waning Gibbous
Jul 29
Last Quarter
Aug 6
New
Aug 14
First Quarter
Aug 20
Full

Hourly Weather History & Observations

Time (CDT) Temp. Heat Index Dew Point Humidity Pressure Visibility Wind Dir Wind Speed Gust Speed Precip Events Conditions
12:53 AM 73.0 °F - 70.0 °F 90% 29.98 in 4.0 mi Calm Calm - N/A   Clear
1:53 AM 72.0 °F - 70.0 °F 93% 29.99 in 4.0 mi Calm Calm - N/A   Clear
2:53 AM 72.0 °F - 70.0 °F 93% 29.97 in 5.0 mi Calm Calm - N/A   Clear
3:53 AM 72.0 °F - 70.0 °F 93% 29.96 in 4.0 mi Calm Calm - N/A   Clear
4:53 AM 73.0 °F - 70.0 °F 90% 29.96 in 4.0 mi Calm Calm - N/A   Clear
5:53 AM 72.0 °F - 70.0 °F 93% 29.97 in 4.0 mi Calm Calm - N/A   Clear
6:53 AM 73.0 °F - 71.1 °F 93% 29.99 in 5.0 mi Calm Calm - N/A   Clear
7:53 AM 77.0 °F - 73.0 °F 88% 29.99 in 8.0 mi Calm Calm - N/A   Clear
8:53 AM 81.0 °F 85.8 °F 73.0 °F 77% 29.98 in 10.0 mi Calm Calm - N/A   Clear
9:53 AM 84.0 °F 90.2 °F 73.0 °F 69% 29.97 in 10.0 mi Calm Calm - N/A   Clear
10:53 AM 84.9 °F 91.4 °F 73.0 °F 67% 29.97 in 10.0 mi Calm Calm - N/A   Clear
11:53 AM 86.0 °F 93.0 °F 73.0 °F 65% 29.97 in 10.0 mi NW 3.5 mph - N/A   Partly Cloudy
12:11 PM 86.0 °F 93.4 °F 73.4 °F 66% 29.98 in 10.0 mi WNW 3.5 mph - N/A Thunderstorm Clear
12:29 PM 84.2 °F 90.9 °F 73.4 °F 70% 29.99 in 10.0 mi WSW 4.6 mph - N/A   Mostly Cloudy
12:53 PM 84.9 °F 92.1 °F 73.9 °F 69% 29.97 in 10.0 mi WSW 4.6 mph - N/A   Scattered Clouds
1:53 PM 82.0 °F 86.7 °F 72.0 °F 71% 29.96 in 10.0 mi South 10.4 mph - N/A   Partly Cloudy
2:53 PM 81.0 °F 85.8 °F 73.0 °F 77% 29.95 in 10.0 mi SSW 4.6 mph - N/A   Scattered Clouds
3:06 PM 82.4 °F 88.2 °F 73.4 °F 74% 29.96 in 10.0 mi South 5.8 mph - N/A Thunderstorm Clear
3:35 PM 80.6 °F 85.4 °F 73.4 °F 79% 29.96 in 10.0 mi ESE 6.9 mph - N/A   Mostly Cloudy
3:53 PM 79.0 °F - 72.0 °F 79% 29.94 in 10.0 mi ESE 5.8 mph - N/A   Overcast
4:53 PM 79.0 °F - 72.0 °F 79% 29.95 in 10.0 mi SE 5.8 mph - N/A   Partly Cloudy
5:53 PM 79.0 °F - 72.0 °F 79% 29.94 in 10.0 mi SE 5.8 mph - N/A   Mostly Cloudy
6:53 PM 78.1 °F - 72.0 °F 81% 29.94 in 10.0 mi SE 4.6 mph - 0.00 in   Partly Cloudy
7:53 PM 77.0 °F - 73.0 °F 88% 29.94 in 10.0 mi Calm Calm - 0.00 in   Overcast
8:53 PM 75.9 °F - 73.0 °F 91% 29.96 in 10.0 mi Calm Calm - N/A   Overcast
9:53 PM 75.9 °F - 73.0 °F 91% 29.96 in 9.0 mi SE 3.5 mph - N/A   Mostly Cloudy
10:53 PM 75.0 °F - 73.0 °F 94% 29.95 in 8.0 mi SSE 4.6 mph - N/A   Mostly Cloudy
11:53 PM 75.9 °F - 72.0 °F 87% 29.95 in 10.0 mi South 5.8 mph - N/A   Clear